[[{"header":{"parameterUnit":"m.s-1","parameterCategory":1,"la1":30.2991,"la2":30.254,"lo1":-89.0895,"lo2":-89.0444,"dy":0.0017,"dx":0.0017,"nx":28,"ny":28,"refTime":"2025-07-17T03:00:00:Z","depth":0,"parameterNumber":2,"parameterNumberName":"U-component_of_WINDS"},"data":[0,0,0,0,0,0,0,0,0,0,0,0,0,0,0,0,0,0,0,0,0,0,0,0,0,0,0,0,0,0,0,0,0,0,0,0,0,0,0,0,0,0,0,0,0,0,0,0,0,0,0,0,0,0,0,0,0,0,0.8611,0.8609,0,0.8475,0.8473,0.8472,0.8414,0.8414,0.8415,0.8415,0.8273,0.8269,0.8265,0,0,0,0,0,0,0,0,0,0,0,0,0,0.8818,0.8814,0.8611,0.8609,0.8607,0.8475,0.8473,0.8471,0.8414,0.8414,0.8415,0.8415,0.8275,0.827,0.8265,0,0,0,0,0,0,0,0,0,0,0,0,0,0.8709,0.8813,0.8611,0.8563,0.8557,0.8475,0.8473,0.8471,0.8414,0.8414,0.8415,0.8415,0.8276,0.827,0.8264,0.8219,0,0,0.8246,0.8243,0,0,0,0,0,0,0,0,0.8716,0.8702,0.8572,0.8566,0.856,0.8462,0.8494,0.8386,0.8414,0.8468,0.8415,0.8415,0.8335,0.8325,0.8298,0.8213,0.8207,0.8245,0.8242,0.8239,0.8237,0,0,0,0,0,0,0,0.8723,0.8707,0.8557,0.857,0.8563,0.8547,0.8532,0.8473,0.8401,0.8464,0.8459,0.8444,0.8332,0.8304,0.8294,0.8205,0.8246,0.824,0.8237,0.8234,0.8073,0.8073,0,0,0,0,0,0,0.8739,0.8714,0.8561,0.8553,0.864,0.8543,0.8526,0.8493,0.8402,0.8388,0.8444,0.8442,0.8314,0.8302,0.8289,0.8229,0.8239,0.8234,0.823,0.8074,0.8073,0.8072,0,0,0,0,0,0,0.8744,0.8726,0.8567,0.8632,0.8611,0.8539,0.8502,0.849,0.8462,0.8387,0.8373,0.8428,0.8314,0.8298,0.8237,0.8224,0.8231,0.8225,0.8075,0.8074,0.8073,0.811,0,0,0,0,0,0,0.875,0.8728,0.8711,0.8632,0.8608,0.8518,0.8501,0.8487,0.8452,0.8448,0.8369,0.8356,0.8313,0.8246,0.8231,0.8215,0.8221,0.8076,0.8074,0.8073,0.811,0.811,0.8111,0,0,0,0,0,0.8758,0.8727,0.8711,0.8693,0.8585,0.8517,0.8503,0.8455,0.8451,0.8433,0.8384,0.8359,0.8228,0.824,0.8223,0.8205,0.8076,0.8075,0.8073,0.8109,0.811,0.8111,0,0,0,0,0,0,0.8806,0.8716,0.8697,0.864,0.8587,0.8508,0.8483,0.8457,0.8404,0.8402,0.8344,0.8326,0.827,0.8231,0.8247,0.8156,0.815,0.8145,0.8183,0.8183,0.8184,0.8194,0.8216,0,0,0,0,0,0.881,0.8764,0.8687,0.8644,0.8618,0.8556,0.8524,0.8492,0.8434,0.8411,0.8358,0.8302,0.8248,0.8214,0.816,0.8104,0.8085,0.8083,0.8084,0.8085,0.8081,0.8046,0.8044,0.8067,0.8067,0.8068,0,0,0.8818,0.8763,0.8737,0.8652,0.8607,0.8559,0.8537,0.8488,0.8451,0.8403,0.8342,0.8301,0.8235,0.8176,0.8147,0.8142,0.807,0.8083,0.8084,0.8079,0.8044,0.8042,0.804,0.8066,0.8067,0.8067,0,0,0.8808,0.8762,0.8721,0.8676,0.8608,0.8566,0.8556,0.848,0.8452,0.839,0.8353,0.8307,0.8216,0.817,0.8134,0.8105,0.8079,0.8089,0.8092,0.8059,0.8058,0.8056,0.8043,0.804,0.8085,0.8085,0.8086,0,0.8826,0.8753,0.8702,0.8654,0.8617,0.8572,0.8529,0.8488,0.8406,0.8381,0.8376,0.8259,0.8212,0.814,0.8133,0.8106,0.8092,0.8097,0.8062,0.806,0.8057,0.8045,0.804,0.8087,0.8087,0.8087,0.8087,0,0.8778,0.8727,0.8702,0.8624,0.8584,0.8539,0.848,0.8446,0.8416,0.8375,0.8311,0.8252,0.8185,0.8165,0.8136,0.8089,0.8088,0.8074,0.8066,0.8057,0.8044,0.804,0.8089,0.8089,0.8088,0.8088,0,0,0.8794,0.8688,0.868,0.8643,0.8564,0.8524,0.8475,0.841,0.8381,0.8325,0.8282,0.8205,0.8191,0.8151,0.8116,0.8087,0.8065,0.8076,0.8073,0.8075,0.8008,0.8018,0.8014,0.8048,0.8047,0.8046,0.8013,0,0.8772,0.8685,0.8638,0.857,0.8521,0.8477,0.8435,0.8381,0.8341,0.8293,0.8247,0.8193,0.8179,0.8155,0.8124,0.8075,0.8051,0.8076,0.8006,0.8004,0.8023,0.8007,0.8019,0.7991,0.8008,0.8007,0.8006,0,0.8735,0.8681,0.8608,0.8533,0.8511,0.8474,0.8409,0.8365,0.8302,0.8274,0.8229,0.8194,0.8139,0.8137,0.806,0.8078,0.8046,0.8017,0.8015,0.8006,0.8004,0.7997,0.7981,0.7976,0.7998,0.7999,0.8,0,0.8753,0.8661,0.8605,0.8575,0.8487,0.8462,0.8423,0.8361,0.8324,0.8268,0.8243,0.818,0.8146,0.8097,0.8046,0.8049,0.7974,0.7967,0.7948,0.7949,0.7933,0.7935,0.7911,0.7915,0.7915,0.7915,0.7915,0,0.8733,0.869,0.8612,0.8578,0.8527,0.8473,0.8424,0.8382,0.8327,0.8282,0.824,0.8199,0.8134,0.8084,0.8043,0.7985,0.797,0.7945,0.7934,0.7948,0.7951,0.7926,0.7926,0.7914,0.7914,0.7914,0.7914,0,0.8745,0.8691,0.8627,0.8548,0.8527,0.8493,0.8425,0.8389,0.8346,0.829,0.8274,0.8206,0.8145,0.8089,0.8008,0.798,0.792,0.7908,0.7942,0.7936,0.7919,0.7921,0.7877,0.7868,0.788,0.788,0.788,0,0.8736,0.8701,0.8618,0.8586,0.8548,0.8497,0.8459,0.8403,0.8365,0.829,0.8262,0.8199,0.8144,0.8049,0.7991,0.7928,0.7913,0.7902,0.7903,0.7917,0.7911,0.7913,0.7909,0.7902,0.7903,0.7903,0.7903,0,0.8724,0.8698,0.8646,0.8583,0.8539,0.8487,0.8433,0.8409,0.8342,0.8301,0.8239,0.8197,0.8114,0.805,0.798,0.7939,0.7909,0.7903,0.7895,0.7908,0.7929,0.7916,0.7943,0.7904,0.7904,0.7904,0.7904,0.7904,0.8723,0.869,0.8626,0.8568,0.8522,0.8473,0.8435,0.8386,0.8333,0.8262,0.8232,0.8168,0.8104,0.8007,0.7966,0.7914,0.7908,0.7897,0.7894,0.7891,0.7893,0.7938,0.7902,0.7901,0.7901,0.7901,0.7901,0,0.8709,0.8665,0.8612,0.8538,0.8492,0.8469,0.8408,0.837,0.8315,0.8258,0.8206,0.8132,0.807,0.8007,0.7941,0.7911,0.7896,0.7896,0.7897,0.7887,0.7904,0.7917,0.7909,0.7909,0.7909,0.7909,0.7909,0.7909,0.8695,0.8637,0.8604,0.8522,0.8478,0.8416,0.8382,0.8336,0.829,0.8211,0.8159,0.8118,0.8058,0.7987,0.7928,0.7911,0.7888,0.7891,0.787,0.7887,0.7887,0.7886,0.7898,0.7887,0.7887,0.7858,0.7858,0.7858]},{"header":{"parameterUnit":"m.s-1","parameterCategory":1,"la1":30.2991,"la2":30.254,"lo1":-89.0895,"lo2":-89.0444,"dy":0.0017,"dx":0.0017,"nx":28,"ny":28,"refTime":"2025-07-17T03:00:00:Z","depth":0,"parameterNumber":3,"parameterNumberName":"V-component_of_WINDS"},"data":[0,0,0,0,0,0,0,0,0,0,0,0,0,0,0,0,0,0,0,0,0,0,0,0,0,0,0,0,0,0,0,0,0,0,0,0,0,0,0,0,0,0,0,0,0,0,0,0,0,0,0,0,0,0,0,0,0,0,-2.9127,-2.9129,0,-2.9228,-2.9229,-2.923,-2.9218,-2.9217,-2.9215,-2.9214,-2.9318,-2.9322,-2.9327,0,0,0,0,0,0,0,0,0,0,0,0,0,-2.8928,-2.8932,-2.9127,-2.9129,-2.913,-2.9228,-2.9229,-2.923,-2.9219,-2.9217,-2.9215,-2.9213,-2.9317,-2.9322,-2.9327,0,0,0,0,0,0,0,0,0,0,0,0,0,-2.902,-2.8933,-2.9127,-2.9136,-2.9138,-2.9227,-2.9229,-2.9231,-2.9219,-2.9217,-2.9214,-2.9212,-2.9315,-2.9321,-2.9328,-2.9416,0,0,-2.9347,-2.935,0,0,0,0,0,0,0,0,-2.9015,-2.9028,-2.9133,-2.9135,-2.9138,-2.9208,-2.9197,-2.9293,-2.922,-2.9188,-2.9214,-2.9211,-2.9284,-2.9293,-2.9317,-2.9421,-2.9425,-2.9348,-2.9352,-2.9355,-2.9357,0,0,0,0,0,0,0,-2.9009,-2.9023,-2.9167,-2.9135,-2.9138,-2.9135,-2.9146,-2.9215,-2.9248,-2.9191,-2.919,-2.9202,-2.9284,-2.9311,-2.9319,-2.9427,-2.9348,-2.9354,-2.9358,-2.936,-2.9609,-2.9612,0,0,0,0,0,0,-2.9,-2.9018,-2.9164,-2.917,-2.9069,-2.9141,-2.9153,-2.9188,-2.9248,-2.9254,-2.9204,-2.9201,-2.9301,-2.9312,-2.9323,-2.943,-2.9355,-2.9361,-2.9364,-2.9606,-2.961,-2.9613,0,0,0,0,0,0,-2.8996,-2.9013,-2.916,-2.9094,-2.9112,-2.9147,-2.9187,-2.9191,-2.9217,-2.9258,-2.9264,-2.9225,-2.9299,-2.9314,-2.9393,-2.9434,-2.9364,-2.9369,-2.9603,-2.9607,-2.9611,-2.9646,0,0,0,0,0,0,-2.899,-2.9011,-2.9045,-2.9095,-2.9116,-2.9228,-2.9189,-2.9195,-2.9228,-2.9225,-2.9278,-2.9285,-2.9299,-2.9383,-2.9399,-2.9441,-2.9374,-2.96,-2.9605,-2.961,-2.9641,-2.9651,-2.9659,0,0,0,0,0,-2.8983,-2.9051,-2.9046,-2.9064,-2.9158,-2.923,-2.9242,-2.9256,-2.9231,-2.9266,-2.9292,-2.9283,-2.9427,-2.9392,-2.9409,-2.9454,-2.9597,-2.9604,-2.961,-2.9637,-2.9649,-2.9659,0,0,0,0,0,0,-2.9005,-2.9057,-2.9053,-2.9139,-2.918,-2.9228,-2.9271,-2.9268,-2.9317,-2.9312,-2.9328,-2.934,-2.942,-2.9445,-2.9405,-2.9543,-2.9509,-2.9519,-2.9524,-2.9535,-2.9544,-2.9536,-2.938,0,0,0,0,0,-2.902,-2.9073,-2.9116,-2.9188,-2.9209,-2.9237,-2.9268,-2.9275,-2.9319,-2.9336,-2.9368,-2.9411,-2.9466,-2.9502,-2.9555,-2.9645,-2.9657,-2.9685,-2.9693,-2.97,-2.9709,-2.976,-2.9773,-2.9633,-2.9633,-2.9633,0,0,-2.9051,-2.9086,-2.9119,-2.9193,-2.9226,-2.9282,-2.9251,-2.9311,-2.9353,-2.9346,-2.9422,-2.9447,-2.9496,-2.9582,-2.9621,-2.9605,-2.975,-2.9708,-2.9713,-2.9719,-2.9767,-2.9781,-2.9792,-2.9637,-2.9637,-2.9636,0,0,-2.9137,-2.9169,-2.9232,-2.9265,-2.9315,-2.9333,-2.9348,-2.9397,-2.9413,-2.949,-2.9486,-2.9536,-2.963,-2.9666,-2.9696,-2.9796,-2.9791,-2.9813,-2.9859,-2.9908,-2.9919,-2.9929,-2.9965,-2.9978,-2.9821,-2.9821,-2.9821,0,-2.917,-2.9253,-2.9265,-2.9326,-2.936,-2.9355,-2.942,-2.9452,-2.9516,-2.954,-2.9521,-2.9639,-2.9672,-2.9766,-2.979,-2.9815,-2.9834,-2.9807,-2.9916,-2.9926,-2.9936,-2.9971,-2.9984,-2.9824,-2.9823,-2.9823,-2.9823,0,-2.9291,-2.9349,-2.9395,-2.9457,-2.9495,-2.9558,-2.958,-2.9618,-2.9622,-2.9642,-2.9721,-2.976,-2.9821,-2.9844,-2.9849,-2.9939,-2.9928,-2.9913,-2.9879,-2.9951,-2.9985,-2.9998,-2.9827,-2.9826,-2.9826,-2.9825,0,0,-2.9394,-2.9462,-2.9479,-2.9507,-2.9562,-2.9607,-2.967,-2.9729,-2.9761,-2.9806,-2.986,-2.994,-2.9926,-2.9961,-2.9969,-3.0012,-3.009,-2.9992,-2.9993,-3.0009,-3.0194,-3.0206,-3.0221,-3.0087,-3.0089,-3.0091,-3.019,0,-2.9486,-2.9596,-2.9609,-2.9708,-2.9762,-2.9759,-2.9814,-2.9854,-2.9875,-2.9924,-2.9948,-3.0004,-2.9981,-3.0002,-3.0045,-3.0071,-3.0127,-3.0065,-3.0138,-3.014,-3.0126,-3.0238,-3.0251,-3.0342,-3.0203,-3.0205,-3.0207,0,-2.9607,-2.9655,-2.9759,-2.9807,-2.983,-2.9879,-2.9934,-2.9982,-3.0027,-3.004,-3.0078,-3.0082,-3.0148,-3.0111,-3.0203,-3.016,-3.0191,-3.0209,-3.0212,-3.022,-3.0178,-3.025,-3.0371,-3.0385,-3.0227,-3.0226,-3.0224,0,-2.9672,-2.9763,-2.9837,-2.9861,-2.9919,-2.9953,-2.9979,-3.0022,-3.0057,-3.0106,-3.0129,-3.0185,-3.0216,-3.026,-3.0279,-3.025,-3.0371,-3.0335,-3.0384,-3.0384,-3.041,-3.0408,-3.0539,-3.0428,-3.0428,-3.0428,-3.0428,0,-2.9774,-2.9838,-2.9867,-2.9913,-2.9985,-3.0,-3.0071,-3.0095,-3.0134,-3.0185,-3.0186,-3.0234,-3.0255,-3.0307,-3.0322,-3.0397,-3.0411,-3.0424,-3.0427,-3.0424,-3.0423,-3.0445,-3.044,-3.0432,-3.0431,-3.043,-3.0429,0,-2.9859,-2.9881,-2.9962,-3.0009,-3.0023,-3.0074,-3.0115,-3.016,-3.018,-3.0245,-3.0261,-3.0294,-3.0355,-3.0378,-3.0453,-3.0463,-3.055,-3.0548,-3.0534,-3.0535,-3.0583,-3.0579,-3.0734,-3.0755,-3.063,-3.0631,-3.0632,0,-2.9922,-2.9971,-3.0024,-3.0058,-3.0085,-3.014,-3.0175,-3.0192,-3.023,-3.0286,-3.0324,-3.0385,-3.0434,-3.0533,-3.0564,-3.0621,-3.0621,-3.0671,-3.063,-3.0626,-3.0623,-3.0621,-3.0626,-3.0679,-3.0681,-3.0682,-3.0683,0,-3.0033,-3.0041,-3.0092,-3.0147,-3.019,-3.0234,-3.0277,-3.0305,-3.0329,-3.0371,-3.0433,-3.0472,-3.0548,-3.0609,-3.0668,-3.0696,-3.0694,-3.0695,-3.071,-3.0708,-3.0698,-3.0705,-3.0556,-3.0692,-3.0691,-3.069,-3.069,-3.0689,-3.011,-3.0154,-3.0198,-3.0255,-3.0289,-3.0329,-3.0374,-3.04,-3.0452,-3.0515,-3.0522,-3.0589,-3.0635,-3.0714,-3.0745,-3.0798,-3.0785,-3.0806,-3.0811,-3.0816,-3.082,-3.0689,-3.0809,-3.0809,-3.0809,-3.0808,-3.0808,0,-3.0221,-3.025,-3.0302,-3.0362,-3.0407,-3.04,-3.0448,-3.0486,-3.0545,-3.0587,-3.0636,-3.0709,-3.0768,-3.0804,-3.0863,-3.09,-3.0901,-3.0915,-3.0913,-3.092,-3.0828,-3.081,-3.0913,-3.0913,-3.0913,-3.0913,-3.0913,-3.0913,-3.0285,-3.0358,-3.0373,-3.0464,-3.0492,-3.0557,-3.0585,-3.0623,-3.0657,-3.0738,-3.0787,-3.0809,-3.0849,-3.0912,-3.0967,-3.0976,-3.0999,-3.1015,-3.1023,-3.0937,-3.0926,-3.0916,-3.0899,-3.1019,-3.1019,-3.111,-3.1111,-3.1111]}]]